User: anonymous   Login
Location: Caltech
(34.1382°N, 118.1253°W)
Time: 08:26:30
(UTC-07:00)
Language:

PAYLOAD A - Orbit

View from above orbital plane
View from above orbital plane
View from above satellite
View from above satellite

Ground track
Ground track

The orbit data is extracted from the following two-line orbital elements,

1 27840U 03031A   17228.59458717 -.00000001 +00000-0 +13354-4 0  9996
2 27840 098.2081 223.5098 0097118 297.3491 061.7838 14.38885728741909
Epoch (UTC): 16 August 2017 14:16:12
Eccentricity: 0.0097118
inclination: 98.2081°
perigee height: 693 km
apogee height: 831 km
right ascension of ascending node: 223.5098°
argument of perigee: 297.3491°
revolutions per day: 14.38885728
mean anomaly at epoch: 61.7838°
orbit number at epoch: 74190

The dashed part of the orbit path shows where the satellite is in the earth's shadow,  

DLR